{"data":{"norad_id":58841,"intl_designator":"2024-017R","name":"STARLINK-31236","alt_names":[],"object_type":"PAYLOAD","status":"ACTIVE","operator":null,"country":"US","launch_date":"2024-01-24","launch_site_code":"AFWTR","launch_vehicle":null,"mission":null,"orbit_class":"UNKNOWN","rcs_meters":null,"size_class":null,"mass_kg":null,"dimensions":null,"purposes":["comms"],"wikipedia_slug":null,"has_3d_model":false,"image_url":null,"decayed_at":null,"tle_current":{"epoch":"2026-09-20T14:26:39.975648Z","epoch_age_seconds":143723,"freshness":"FRESH","line1":"1 58841U 24017R   26263.60185157  .00001582  00000+0  57944-4 0  9990","line2":"2 58841  53.1631  17.1631 0000823 102.9182 257.1913 15.34400465149927","mean_motion":15.34400465,"eccentricity":8.23e-5,"inclination_deg":53.1631,"raan_deg":17.1631,"arg_perigee_deg":102.9182,"mean_anomaly_deg":257.1913,"bstar":5.7944e-5,"rev_number":14992,"period_min":93.847729640775,"perigee_km":462.13885709144,"apogee_km":463.26485916748,"semimajor_km":6840.8388581295,"source":"CELESTRAK","updated_at":"2026-09-21T09:00:33.985427Z"}}}